Location: Chapel Hill
(35.9134°N, 79.0560°W)
Time: 04:48:06
(UTC-04:00)

ACS3 Solar Sail - Pass Details

Date: 21 June 2024
Orbit: 993 x 1022 km, 97.4° (Epoch: 23 July)

Event Time Altitude Azimuth Distance (km) Brightness Sun altitude
Exits shadow 23:42:12 28° 225° (SW) 1,790 6.0 -26.5°
Maximum altitude 23:44:26 36° 264° (W) 1,537 5.9 -26.6°
Drops below altitude 10° 23:50:05 10° 330° (NNW) 2,766 8.1 -27.1°
Sets 23:52:49 0° 339° (NNW) 3,716 9.1 -27.3°
